Weather History for KAKR - April, 2013

Change the Weather History Date:

Monday, April 1, 2013

  Actual Average (KCAK) Record (KCAK)
Temperature  
Mean Temperature 39 °F 44 °F  
Max Temperature 46 °F 54 °F 81 °F (1986)
Min Temperature 32 °F 34 °F 10 °F (1964)
Degree Days  
Heating Degree Days 26 21  
Month to date heating degree days 21  
Since 1 July heating degree days 5416  
Cooling Degree Days 0 0  
Month to date cooling degree days 0  
Year to date cooling degree days 0  
Moisture  
Dew Point 23 °F    
Average Humidity 59    
Maximum Humidity 87    
Minimum Humidity 30    
Precipitation  
Precipitation 0.01 in 0.12 in - ()
Month to date precipitation 0.12  
Year to date precipitation 8.02  
Snow  
Snow 0.00 in 0.20 in - ()
Month to date snowfall 0.2  
Since 1 July snowfall 44.9  
Snow Depth -    
Sea Level Pressure  
Sea Level Pressure 29.89 in    
Wind  
Wind Speed 12 mph (NW)    
Max Wind Speed 15 mph    
Max Gust Speed 31 mph    
Visibility 9 miles    
Events Snow    
T = Trace of Precipitation, MM = Missing Value Source: NWS Daily Summary

Daily Weather History Graph

Daily Weather History Graph

Search for Another Location

Airport or City:

Trip Planner

Search our weather history database for the weather conditions in past years. The results will help you decide how hot, cold, wet, or windy it might be!

Date:

Astronomy

Apr. 01, 2013 Rise Set
Actual Time 7:08 AM EDT 7:51 PM EDT
Civil Twilight 6:41 AM EDT 8:18 PM EDT
Nautical Twilight 6:08 AM EDT 8:51 PM EDT
Astronomical Twilight 5:34 AM EDT 9:25 PM EDT
Moon 1:00 AM EDT (4/1) 10:51 AM EDT (4/1)
Length of Visible Light 13h 37m
Length of Day
12h 42m
Waning Gibbous, 67% of the Moon is Illuminated
Apr 1
Waning Gibbous
Apr 3
Last Quarter
Apr 10
New
Apr 18
First Quarter
Apr 25
Full

Hourly Weather History & Observations

Time (EDT) Temp. Windchill Dew Point Humidity Pressure Visibility Wind Dir Wind Speed Gust Speed Precip Events Conditions
12:54 AM 46.4 °F 41.1 °F 37.4 °F 71% 29.67 in 10.0 mi SW 11.5 mph - N/A   Scattered Clouds
1:54 AM 46.9 °F - 37.0 °F 68% 29.68 in 10.0 mi SW 12.7 mph - N/A   Partly Cloudy
2:54 AM 46.0 °F 39.6 °F 37.0 °F 71% 29.70 in 10.0 mi West 15.0 mph 25.3 mph N/A   Mostly Cloudy
3:54 AM 42.8 °F 36.2 °F 33.8 °F 70% 29.71 in 10.0 mi West 12.7 mph 20.7 mph N/A   Mostly Cloudy
4:54 AM 39.0 °F 31.4 °F 28.0 °F 65% 29.75 in 10.0 mi NW 12.7 mph - N/A   Scattered Clouds
5:54 AM 37.9 °F 29.6 °F 26.1 °F 62% 29.78 in 10.0 mi NW 13.8 mph - N/A   Partly Cloudy
6:54 AM 37.0 °F 28.1 °F 27.0 °F 67% 29.81 in 10.0 mi NW 15.0 mph 20.7 mph N/A   Overcast
7:20 AM 37.4 °F 30.8 °F 26.6 °F 65% 29.81 in 8.0 mi NW 9.2 mph - 0.00 in Snow Light Snow
7:54 AM 34.0 °F 25.0 °F 28.0 °F 79% 29.86 in 10.0 mi NNW 12.7 mph - 0.00 in   Overcast
8:13 AM 33.8 °F 25.3 °F 28.4 °F 81% 29.86 in 1.8 mi NW 11.5 mph 20.7 mph 0.00 in Snow Light Snow
8:24 AM 32.0 °F 24.2 °F 28.4 °F 87% 29.87 in 0.8 mi NNW 9.2 mph 19.6 mph 0.00 in Snow Light Snow
8:29 AM 33.8 °F 26.4 °F 28.4 °F 81% 29.87 in 2.5 mi NW 9.2 mph - 0.00 in Snow Light Snow
8:35 AM 33.8 °F 24.8 °F 28.4 °F 81% 29.87 in 8.0 mi NW 12.7 mph - 0.00 in   Overcast
8:46 AM 33.8 °F 25.8 °F 28.4 °F 81% 29.87 in 4.0 mi NNW 10.4 mph - 0.00 in Snow Light Snow
8:54 AM 33.8 °F 25.3 °F 28.4 °F 81% 29.88 in 5.0 mi NW 11.5 mph - N/A Snow Light Snow
9:01 AM 33.8 °F 27.0 °F 28.4 °F 81% 29.88 in 5.0 mi NNW 8.1 mph 18.4 mph 0.00 in Snow Light Snow
9:54 AM 33.1 °F 23.0 °F 25.0 °F 72% 29.92 in 10.0 mi NW 15.0 mph 20.7 mph 0.01 in   Overcast
10:05 AM 33.8 °F 24.3 °F 24.8 °F 70% 29.91 in 10.0 mi NW 13.8 mph - N/A   Overcast
10:54 AM 35.6 °F 26.6 °F 19.4 °F 52% 29.92 in 10.0 mi NNW 13.8 mph 24.2 mph N/A   Overcast
11:54 AM 36.0 °F 27.5 °F 14.0 °F 41% 29.96 in 10.0 mi NNW 12.7 mph 24.2 mph N/A   Scattered Clouds
12:54 PM 37.9 °F 30.5 °F 14.0 °F 38% 29.96 in 10.0 mi NW 11.5 mph 20.7 mph N/A   Mostly Cloudy
1:54 PM 39.0 °F 30.6 °F 10.0 °F 30% 29.97 in 10.0 mi NW 15.0 mph 21.9 mph N/A   Clear
2:54 PM 39.2 °F 30.8 °F 10.4 °F 31% 29.96 in 10.0 mi West 15.0 mph 31.1 mph N/A   Partly Cloudy
3:54 PM 39.0 °F 31.4 °F 12.0 °F 33% 29.97 in 10.0 mi West 12.7 mph 24.2 mph N/A   Overcast
4:54 PM 37.9 °F 30.0 °F 12.9 °F 36% 29.98 in 10.0 mi WNW 12.7 mph 21.9 mph N/A   Mostly Cloudy
5:54 PM 37.9 °F 30.9 °F 14.0 °F 38% 29.99 in 10.0 mi West 10.4 mph - N/A   Mostly Cloudy
6:54 PM 37.0 °F 28.5 °F 14.0 °F 39% 30.00 in 10.0 mi NW 13.8 mph - N/A   Mostly Cloudy
7:54 PM 35.1 °F 27.9 °F 14.0 °F 42% 30.01 in 10.0 mi NW 9.2 mph - N/A   Mostly Cloudy
8:54 PM 33.1 °F 26.1 °F 12.9 °F 43% 30.03 in 10.0 mi NW 8.1 mph - N/A   Scattered Clouds
9:54 PM 33.1 °F 25.5 °F 14.0 °F 46% 30.05 in 10.0 mi NW 9.2 mph - N/A   Overcast
10:54 PM 33.1 °F 24.9 °F 15.1 °F 48% 30.06 in 10.0 mi NW 10.4 mph - N/A   Overcast
11:54 PM 32.0 °F 22.5 °F 15.1 °F 50% 30.06 in 10.0 mi NNW 12.7 mph 19.6 mph N/A   Overcast